FENGYUN 1C DEB, 29891

Orbit data source: Space-Track

FENGYUN 1C DEB, 29891 is space debris in SSO originally from a launch on Mon, 10 May 1999 UTC launched from the Taiyaun Space Center, China (TSC). Fengyun 1C debris stems from the Chinese weather satellite Fengyun-1C, which was intentionally destroyed by a Chinese anti-satellite missile in 2007. This event dramatically increased the amount of space debris, with thousands of trackable fragments posing hazards to satellites and human spaceflight. The Fengyun 1C debris cloud has become a focal point in discussions about space sustainability and the need for international regulations to prevent the creation of new debris.

Loading next visibility...
Identifier
29891, 1999-025GM
Orbit
SSO
Country
Flag of CNCN / PRC
Related business
Manufacturer
Unknown
Mission
Spacecraft
Bus & Motor
Unknown
Mass
Unknown
Launch date (UTC)
1999-05-10 (27 years ago)
Launch vehicle
Unknown
Launch site
Taiyaun Space Center, China (TSC)
Object type
Payload
Rocket body
Debris
Shape & HBR
Unknown shape, 0.2 m
Radar Cross Section
Small (<0.1 m²)

Expand to show TLE details & history
Last TLE update: 12 hours ago

TLE from 12 hours ago
0 FENGYUN 1C DEB
1 29891U 99025GM  26037.55378975  .00000369  00000-0  27378-3 0  9999
2 29891  98.7330  42.1379 0062071 105.9535  14.4557 14.00083741972698
Epoch: 2026-02-06T13:17Z
TLE epoch observation values (Epoch: 2026-02-06T13:17:27.434Z)
Latitude
58.40425°
Longitude
-99.53273°
Altitude
859.628 km
Speed
7.451 km/s
True Right ascension
15h 46m 05s
True Declination
58° 15' 10"
Sunlit
Object was in daylight at epoch
Visualization orbit readout
Latitude
Unknown
Longitude
Unknown
Altitude
Unknown
Speed
Unknown
Apparent Right ascension
Unknown
Apparent Declination
Unknown
Sunlit
N/A
Visualization observer readout
Local Sidereal Time
03:26:52
Azimuth
Unknown
Elevation
Unknown
Doppler factor
Unknown
Orbital elements
Apogee altitude
935.81 km
Perigee altitude
845.573 km
Semi-major axis
7,268.828 km
Eccentricity
0.00621
Inclination
98.733°
RAAN
42.1379°
Arg. of periapsis
105.9535°
True anomaly
14.6346°
Mean anomaly
14.4557°
Eccentric anomaly
14.54502°
Mean motion
3.50225 °/min
Orbital period
102.79 mins
BSTAR
0.00027378
Loading maneuver chart data...
Computing Atmospheric mass density...

Documentation

Showing up to 5 results
|